THORAD DELTA 1 DEB, 8161

Orbit data source: Space-Track

THORAD DELTA 1 DEB, 8161 is space debris in LEO originally from a launch on Fri, 15 Nov 1974 UTC launched from the Air Force Western Test Range (AFWTR). Debris objects in space refer to the collection of defunct objects orbiting the Earth. Examples of debris include non-operational satellites, rocket bodies, and fragments generated from explosions, collisions, or faulty payload assembly.

Loading next visibility...
Identifier
8161, 1974-089AB
Orbit
LEO
Last TLE update
2 days ago
Origin
Manufacturer
Unknown
Mission
Spacecraft
Bus & Motor
Unknown
Mass
Unknown
Launch date (UTC)
1974-11-15 (51 years ago)
Launch vehicle
Unknown
Launch site
Air Force Western Test Range (AFWTR)
Object type
Payload
Rocket body
Debris
Shape & HBR
Unknown
Radar Cross Section
Small (<0.1 m²)

Expand to show TLE details & history

TLE from 2 days ago
0 THORAD DELTA 1 DEB
1 08161U 74089AB  25182.49279425 -.00000854  00000-0 -83645-2 0  9991
2 08161 101.2355 261.9325 0371714  60.0162 315.7786 11.99448034545645
Epoch: 2025-07-01T11:49Z
TLE epoch observation values (Epoch: 2025-07-01T11:49:37.423Z)
Latitude
12.44135°
Longitude
162.23964°
Altitude
1,475.971 km
Speed
7.218 km/s
True Right ascension
17h 17m 43s
True Declination
12° 22' 33"
Sunlit
Object was in full shadow at epoch
Visualization orbit readout
Latitude
2.91297°
Longitude
165.66134°
Altitude
1,501.588 km
Speed
7.195 km/s
Apparent Right ascension
17h 26m 41s
Apparent Declination
-51° 01' 10"
Sunlit
Object is in full shadow
Visualization observer readout
Local Sidereal Time
17:34:16
Azimuth
181.192° SSW
Elevation
-0.951°
Doppler factor
1
Orbital elements
Apogee altitude
1,980.479 km
Perigee altitude
1,381.346 km
Semi-major axis
8,059.049 km
Eccentricity
0.03717
Inclination
101.2355°
RAAN
261.9325°
Arg. of periapsis
60.0162°
True anomaly
Unknown
Mean anomaly
315.7786°
Eccentric anomaly
Unknown
Mean motion
2.99997 °/min
Orbital period
120 mins
BSTAR
-0.0083645
Loading maneuver chart data...
Loading SW <> Apogee altitude chart data...
Loading historical data...
Loading historical data...
Loading historical data...
Loading historical data...
Loading historical data...
Loading historical data...
Loading historical data...

THORAD DELTA 1 DEB Visibility forecast

Observer location: undefined°, undefined°

Span
Click to sort rows by Start time (UTC) header in descending order
Start Az.
Max El. time (UTC)
Max El. Az.
Max El.
End time (UTC)
End Az.
14 mins2025-07-03 05:52:42.459Z189.805° SSW2025-07-03 05:59:42.459Z257.053° W35.49°2025-07-03 06:06:42.459Z329.295° NNW
11 mins2025-07-03 16:28:42.459Z55.811° ENE2025-07-03 16:33:42.459Z94.163° ESE19.283°2025-07-03 16:39:42.459Z135.094° SSE
17 mins2025-07-03 18:24:42.459Z15.074° NNE2025-07-03 18:31:42.459Z335.148° NNW44.728°2025-07-03 18:41:42.459Z202.41° SSW
10 mins2025-07-03 20:24:42.459Z340.365° N2025-07-03 20:28:42.459Z308.639° NW18.864°2025-07-03 20:34:42.459Z266.597° W
12 mins2025-07-04 03:57:42.459Z118.285° SE2025-07-04 04:03:42.459Z53.912° ENE31.02°2025-07-04 04:09:42.459Z0.136° NNE
|